ECMWFFLT1_700_rhum_024.txt.gz
RH
100 97 94 92 94 97 97 96 95 91 79 62 53 53 58 66 75 81 85 89 92 94 96 99 100 101 100 99 100 100 99 96 93 89 87 88 95 98 99 99 99 100 93 76 61 56 53 54 61 66 75 86 86 81 78 74 75 80 85 89 90 90 89
101 101 100 98 98 94 91 94 96 94 86 68 53 49 50 50 54 59 64 68 72 76 80 85 90 96 99 100 101 99 99 100 99 98 96 94 95 96 98 99 99 100 98 85 68 60 56 56 59 66 80 92 92 89 85 80 77 77 81 87 89 88 88
97 98 101 100 99 93 88 91 96 99 96 82 65 55 51 51 50 48 48 51 54 57 61 63 67 75 82 89 96 99 100 100 99 100 99 97 97 98 98 100 99 99 100 94 78 65 60 59 57 65 83 95 96 93 89 84 81 80 80 84 87 88 87
93 95 97 97 98 96 92 90 90 95 99 96 90 76 61 57 57 52 47 46 47 49 52 53 53 55 58 63 71 82 93 99 100 100 99 98 97 97 98 99 100 99 100 99 88 72 65 63 61 67 79 89 93 92 89 87 84 82 80 80 83 84 83
95 96 97 95 94 95 96 92 88 90 91 90 94 87 69 58 57 54 51 49 48 48 49 51 50 49 50 50 50 55 67 81 92 98 100 100 98 96 97 99 99 99 99 100 95 81 71 68 65 65 69 76 87 92 91 91 89 84 82 80 81 80 80
97 95 94 94 94 93 94 92 86 86 85 80 79 75 64 55 52 51 49 48 48 48 48 49 48 48 48 48 46 44 45 53 67 82 93 99 100 98 98 100 100 100 99 100 99 90 79 71 66 65 63 67 83 95 96 96 94 89 84 82 80 80 80
95 94 92 93 95 93 92 90 83 79 78 74 70 66 60 54 51 48 46 46 47 48 48 48 47 47 48 47 45 43 40 39 43 55 69 84 96 100 100 99 99 100 100 100 101 96 86 76 70 69 68 71 86 98 98 97 95 91 85 81 79 80 83
88 90 89 93 98 97 94 89 78 70 66 63 62 61 58 55 53 51 49 49 50 50 50 49 48 48 47 46 45 42 40 37 35 39 47 59 75 90 99 101 99 100 100 99 101 99 92 81 73 72 73 76 87 97 97 97 96 92 86 82 81 84 85
92 90 89 94 99 100 99 91 76 66 58 51 49 50 52 52 52 51 49 50 53 55 53 51 50 49 48 46 44 42 39 37 36 36 37 42 53 67 84 97 100 100 100 99 100 101 96 86 75 71 70 71 82 96 99 99 98 92 87 87 87 88 88
97 92 92 98 100 100 100 93 78 66 58 52 48 48 51 54 53 51 49 50 54 57 56 54 51 49 48 46 44 42 40 38 37 35 34 38 44 52 65 82 95 99 100 100 100 101 100 90 77 71 69 71 86 98 99 99 97 92 91 93 92 91 90
98 93 96 100 100 99 101 98 86 72 63 60 61 61 61 60 58 56 54 52 53 55 55 54 51 47 47 46 43 40 38 38 38 38 37 37 40 46 55 69 86 95 98 101 100 100 101 94 82 73 70 77 94 100 98 100 99 94 95 97 95 95 94
97 97 100 100 100 100 100 100 96 87 77 73 71 71 68 64 58 54 52 52 52 52 51 50 49 48 48 50 49 45 41 38 38 39 40 37 39 47 54 66 85 95 97 100 100 99 101 97 89 80 72 81 98 101 98 101 98 95 96 98 99 99 97
99 102 102 100 100 100 99 100 101 97 90 83 76 71 69 65 59 54 51 50 50 50 50 50 50 49 51 53 54 54 51 47 45 44 42 38 41 50 56 67 87 99 99 100 100 100 100 99 96 91 85 90 100 100 99 100 97 96 99 100 100 99 97
100 101 100 100 101 101 99 97 95 92 88 85 81 75 70 66 62 56 52 49 49 50 50 49 48 46 46 46 50 57 60 60 58 55 50 46 45 50 55 65 84 99 101 98 98 98 98 99 99 99 97 98 100 99 99 100 99 98 99 99 99 98 99
100 100 101 100 99 97 92 88 87 86 85 85 83 81 77 72 64 55 50 49 50 50 48 46 45 45 44 44 48 56 63 69 71 67 61 56 54 55 60 68 83 97 101 97 96 97 99 100 100 100 100 100 99 99 100 101 100 99 97 97 99 100 100
99 99 99 97 93 89 85 84 84 81 78 76 74 75 75 69 61 53 49 49 49 47 46 45 46 46 46 49 52 57 64 72 79 79 72 66 63 64 69 78 88 97 101 100 99 100 101 101 101 100 100 99 99 99 100 100 98 97 97 99 99 98 98
96 94 90 86 85 82 78 78 80 77 71 67 68 72 70 63 57 52 49 48 48 46 46 46 49 53 58 64 68 72 77 80 83 86 82 76 73 72 75 87 96 99 100 100 100 101 101 100 100 100 100 100 99 98 97 97 97 98 98 97 96 96 96
80 80 81 82 84 82 77 78 82 83 79 74 78 84 80 69 62 56 50 48 48 49 52 56 63 70 77 85 89 92 95 93 89 90 90 87 84 80 81 91 99 99 100 100 100 100 100 100 100 100 100 100 99 98 99 99 99 98 95 93 94 95 92
71 78 88 93 92 86 81 80 80 81 80 81 86 94 95 91 87 80 73 67 63 62 67 76 84 88 92 98 100 100 101 98 96 97 97 96 94 87 86 94 99 99 100 100 99 100 100 99 99 100 101 101 100 100 101 101 99 96 93 93 95 93 88
83 87 91 92 89 88 88 85 81 78 77 78 85 94 99 101 100 96 89 84 80 80 85 93 98 98 98 100 100 100 100 100 99 100 100 100 97 91 91 97 100 100 100 99 99 100 99 99 100 101 101 102 101 101 100 100 98 95 94 96 95 91 88
94 93 90 86 86 92 95 91 88 85 82 84 92 99 101 101 100 98 93 91 93 95 97 100 101 100 100 101 100 100 100 100 99 100 100 100 98 95 97 100 101 100 100 100 99 100 99 100 100 101 101 101 100 100 100 100 99 97 97 98 95 89 84
99 99 95 89 91 96 96 94 96 96 93 96 100 101 100 100 99 100 99 98 99 99 100 101 101 99 99 99 100 100 99 100 100 99 100 100 99 99 100 100 100 100 100 99 99 99 100 100 100 100 100 100 100 100 101 100 100 100 99 96 91 84 73
100 98 93 90 93 94 88 90 99 101 99 101 101 99 100 100 99 100 100 100 100 100 101 101 101 100 99 99 100 100 99 100 100 99 100 100 100 100 100 100 100 100 99 100 100 100 100 100 100 100 100 100 101 101 100 100 101 101 98 90 81 69 53
96 96 91 87 86 83 77 84 97 101 99 100 100 99 100 99 99 101 100 100 101 101 101 101 100 100 100 99 100 100 99 100 99 99 100 100 100 100 99 100 100 100 100 100 99 100 100 100 100 100 100 100 100 100 100 101 100 96 87 75 62 46 31
93 94 91 85 79 76 76 84 95 100 100 100 99 100 101 100 100 100 99 100 101 100 100 101 100 100 100 100 100 100 100 100 99 100 100 99 100 100 100 100 101 100 100 100 99 100 100 99 100 101 100 100 100 100 101 98 89 78 64 51 40 28 20
97 96 95 89 82 78 77 82 92 99 100 99 99 99 98 96 95 93 94 98 100 100 100 100 99 101 101 100 100 100 99 98 99 101 101 99 99 101 100 101 101 100 100 100 99 100 100 99 101 100 99 101 101 97 92 82 68 55 42 31 24 19 17
100 97 96 93 90 87 83 81 88 98 100 99 99 98 92 89 91 92 95 100 101 101 101 100 100 102 102 101 100 100 99 99 100 100 99 98 100 102 101 101 100 99 100 100 99 100 100 100 101 100 100 99 93 83 73 61 49 38 28 21 19 18 17
100 97 95 95 95 94 91 86 89 98 101 99 98 97 92 90 95 98 99 101 101 101 102 101 100 101 101 100 99 99 100 100 100 100 100 101 102 101 100 100 100 99 100 100 99 100 100 99 101 100 96 87 75 64 53 42 33 27 22 20 20 18 17
99 99 99 98 97 95 92 89 91 99 102 98 96 99 97 95 98 100 100 100 100 100 101 101 100 101 101 99 97 98 100 100 99 100 101 100 100 99 99 100 100 99 100 100 100 100 100 100 100 93 82 68 55 45 37 29 24 22 20 19 19 18 19
100 100 100 100 99 95 92 89 92 99 101 97 96 99 100 98 99 100 100 100 100 100 100 100 100 100 101 101 100 100 100 100 100 101 100 99 99 99 100 100 100 100 100 100 100 101 100 96 86 72 58 47 38 32 28 24 22 21 19 19 20 21 22
100 100 100 100 100 99 97 96 97 101 102 98 97 99 101 100 100 100 100 100 100 100 100 100 100 100 100 101 101 101 101 101 101 101 100 99 99 100 100 100 100 100 100 100 100 98 89 76 61 48 39 34 30 27 24 22 21 21 21 22 23 23 23
100 100 100 100 100 100 100 100 101 101 101 100 100 100 100 100 100 100 100 100 100 100 99 99 99 100 100 100 100 100 100 100 100 100 100 100 100 100 100 100 100 100 100 97 91 79 64 52 43 37 33 31 27 25 24 23 23 24 23 24 24 24 25
100 100 100 100 100 100 100 100 101 100 100 101 101 100 100 100 100 100 99 99 100 101 100 99 100 100 100 100 100 100 100 100 101 101 100 100 100 100 100 100 101 99 93 83 70 56 46 41 37 34 31 29 27 26 26 25 25 25 24 25 25 25 25
100 101 100 100 100 100 100 100 100 100 100 100 101 100 100 99 99 98 96 96 99 101 100 99 100 100 100 100 100 100 100 100 100 100 100 100 100 100 100 99 94 84 72 61 52 45 41 39 36 33 31 29 28 27 26 25 25 25 25 26 25 25 25
101 100 100 100 100 100 100 100 100 100 100 100 100 100 100 100 100 99 97 98 99 101 100 100 100 100 100 101 101 100 99 100 100 100 100 100 99 100 100 94 82 69 59 52 46 42 40 38 35 33 31 29 28 27 26 26 26 26 26 26 26 25 25
101 100 99 100 101 101 100 100 99 99 100 100 100 99 99 100 100 100 100 101 100 97 96 98 100 100 100 101 101 100 100 100 100 99 100 100 101 101 97 87 74 63 54 47 43 40 38 36 34 32 31 29 28 28 27 27 28 27 26 26 25 24 24

ECMWFFLT1_700_rhum_030.txt.gz
RH
93 90 87 90 94 92 89 87 87 88 90 91 92 94 97 98 101 103 100 100 100 94 84 72 66 76 92 99 99 100 101 100 100 100 100 101 100 99 99 99 101 98 91 89 93 95 98 100 99 100 100 99 100 100 100 101 95 86 83 80 72 65 58
91 92 89 91 93 91 88 87 87 90 92 94 96 96 96 97 98 99 99 100 100 98 91 80 69 71 85 97 99 100 101 100 100 100 99 101 100 97 95 97 100 98 95 96 96 96 99 101 99 100 100 99 100 100 100 101 99 93 88 86 79 71 62
90 92 92 93 93 92 91 88 88 92 94 93 95 96 95 93 92 92 94 97 98 96 93 87 77 72 81 94 100 99 100 101 100 100 100 100 100 99 96 97 99 99 97 99 100 99 100 101 100 100 100 100 100 100 100 100 100 98 95 92 85 75 66
90 92 93 94 95 94 92 87 85 90 92 93 96 94 93 92 89 88 90 92 95 96 94 91 84 79 83 93 100 99 99 101 100 100 100 100 100 100 99 97 99 99 98 99 100 100 100 100 100 100 99 100 100 99 100 100 100 100 98 96 91 82 74
92 91 90 91 94 95 92 86 84 85 86 91 95 93 92 93 90 88 87 87 91 96 97 93 87 84 86 93 99 100 99 100 100 100 100 100 100 100 100 99 99 99 99 100 100 100 100 100 100 100 99 99 100 99 99 99 100 100 97 95 92 85 79
90 87 84 87 92 93 91 87 87 86 83 84 89 92 95 96 93 91 89 87 90 95 98 96 92 89 88 90 96 100 100 100 100 100 100 100 100 100 100 100 100 100 100 99 99 100 101 100 100 100 99 100 101 100 99 99 100 101 97 93 90 84 80
90 88 86 87 89 91 88 84 85 89 88 84 86 92 95 94 95 97 95 93 93 94 96 95 92 92 89 85 89 96 100 100 100 100 100 100 100 100 100 100 100 101 101 98 96 96 99 100 100 100 99 99 100 101 100 99 99 101 97 92 87 82 80
94 95 94 90 88 89 87 82 80 84 86 84 84 89 92 91 95 100 101 100 96 93 94 92 91 91 87 81 81 87 93 98 100 100 100 100 100 100 100 100 99 100 101 98 93 91 94 98 100 100 100 100 101 99 96 94 97 99 96 93 90 87 89
95 95 94 93 90 89 88 85 81 79 80 81 81 84 88 91 95 98 100 102 100 96 94 94 93 92 86 80 78 79 83 89 92 96 98 99 100 100 100 101 100 100 101 99 94 89 89 92 94 96 97 96 97 96 95 95 98 100 99 98 97 97 99
96 94 92 92 92 91 90 88 86 84 82 82 83 85 88 92 96 98 99 102 103 101 99 98 98 95 90 86 79 73 74 78 81 84 88 91 95 98 98 98 99 99 99 99 96 91 87 86 85 86 89 90 93 98 100 99 100 100 100 101 101 100 100
99 99 97 95 92 92 92 91 91 91 89 86 85 86 89 93 96 98 99 102 102 100 98 98 96 90 87 84 77 70 68 70 71 72 75 80 85 89 91 93 93 93 93 94 95 94 91 86 81 79 82 86 91 98 101 100 100 100 100 100 100 100 99
99 99 98 97 95 94 94 95 96 97 95 92 90 90 90 92 95 98 100 102 101 97 91 88 86 82 78 76 73 69 66 64 64 64 64 67 70 73 78 81 83 84 84 85 86 88 89 87 85 85 84 84 87 94 99 101 100 100 100 100 100 100 99
100 100 100 98 98 97 96 98 99 99 99 99 97 94 92 93 96 99 101 101 100 96 88 80 75 73 71 69 67 67 66 62 59 59 59 60 60 61 63 65 68 71 73 75 75 76 75 75 78 83 85 87 90 95 99 101 100 100 100 100 100 99 100
99 100 102 101 100 99 98 100 101 100 102 102 99 96 96 97 99 99 98 96 94 91 86 79 73 68 67 67 65 65 65 63 60 57 57 57 56 56 56 56 58 59 60 61 62 62 60 60 62 66 71 80 89 95 99 100 100 101 101 100 100 100 99
98 96 96 97 98 97 97 99 101 101 101 99 98 98 99 100 100 98 95 90 88 86 84 81 76 69 65 64 63 63 63 65 67 65 62 58 54 53 53 52 52 53 53 53 51 51 50 50 52 53 54 60 70 82 96 102 101 101 101 100 100 100 99
99 98 97 96 96 97 98 99 99 100 100 98 98 99 100 99 98 96 91 85 82 82 83 83 82 76 69 63 60 61 62 65 68 68 66 63 59 57 55 53 53 54 54 53 50 48 48 49 50 49 48 49 54 66 85 99 101 99 100 99 99 99 99
100 100 100 101 99 98 99 99 98 97 98 98 99 98 97 95 94 93 90 87 84 83 82 81 80 79 76 69 64 63 65 69 70 67 66 65 65 64 60 57 58 59 57 55 53 51 49 49 49 47 47 51 54 60 73 91 101 100 99 100 100 99 100
99 98 96 96 96 94 95 97 96 94 94 97 98 97 96 95 93 90 88 86 85 84 83 82 80 79 76 71 66 62 62 66 67 65 64 64 65 65 62 59 62 64 61 57 56 54 51 50 49 47 47 50 56 57 60 74 92 100 100 100 101 100 100
97 98 94 90 90 92 94 97 99 98 98 97 96 97 97 95 91 85 80 78 75 72 69 68 68 69 67 64 63 62 62 63 65 62 59 60 63 61 58 57 60 62 60 58 55 52 52 54 54 52 50 49 49 52 54 61 79 96 102 100 99 100 101
98 99 97 95 95 96 96 96 97 100 99 94 92 92 90 88 88 89 88 87 84 77 70 64 61 61 62 62 62 62 62 64 65 61 58 59 59 56 54 55 56 57 62 65 62 57 55 58 59 58 59 54 44 43 49 51 59 81 98 101 99 100 101
97 97 96 97 97 97 97 96 95 97 96 91 87 85 82 83 88 95 99 98 94 88 80 74 71 70 73 80 83 81 77 74 72 70 67 62 57 56 60 62 59 60 68 74 75 71 67 67 66 62 63 63 52 43 45 45 49 71 95 103 100 99 100
100 100 99 98 97 96 96 94 92 92 91 85 81 80 82 86 92 98 101 100 98 94 88 84 84 85 87 94 99 99 97 94 91 90 86 79 74 77 82 79 72 70 72 73 74 73 69 72 75 71 66 68 65 56 50 46 50 67 87 98 101 100 100
99 99 98 97 96 95 94 91 88 86 83 79 77 79 81 84 90 96 100 100 100 100 98 96 97 97 97 98 99 100 101 99 98 99 99 96 95 98 99 95 88 84 82 81 82 80 75 76 81 80 73 72 74 72 63 56 55 64 78 92 100 101 99
91 91 92 93 94 96 97 94 89 87 84 79 75 75 75 80 89 96 99 100 100 100 100 100 100 99 100 99 98 100 100 100 100 100 100 101 101 100 98 97 96 95 95 96 97 97 92 87 86 85 81 81 86 88 82 75 72 78 87 95 100 100 100
92 94 97 98 98 98 99 98 93 91 87 79 71 69 74 84 93 97 96 97 97 97 97 98 97 98 100 100 100 100 100 100 100 100 100 101 101 99 98 99 100 100 100 100 100 100 99 97 95 94 94 95 99 100 95 89 89 93 98 100 100 99 100
99 100 101 101 101 98 96 94 94 93 87 77 69 70 79 89 94 94 93 93 94 94 96 97 97 97 99 100 101 101 101 100 101 101 101 101 100 100 100 100 100 101 101 101 100 99 100 100 99 100 100 100 101 101 99 98 99 100 100 99 99 100 100
101 99 99 100 100 97 91 87 90 92 86 78 74 77 86 94 96 95 96 97 98 98 99 100 99 97 97 98 100 101 101 101 101 101 101 101 101 101 100 99 100 101 102 102 100 99 100 100 100 100 100 100 100 100 101 100 99 97 97 98 100 100 100
100 97 97 99 99 100 97 92 90 90 85 80 80 84 92 98 99 99 99 99 99 98 96 94 93 93 95 97 100 101 101 101 101 101 101 102 102 101 99 98 98 97 98 99 100 100 100 100 100 100 100 100 101 100 99 97 96 96 99 100 100 100 100
102 99 99 100 99 99 100 98 94 90 87 87 89 93 97 100 101 100 97 94 92 91 91 91 92 93 95 96 97 99 101 101 101 102 102 102 102 101 100 99 96 94 95 98 100 101 100 100 100 100 100 100 99 98 96 95 97 99 101 100 100 100 100
102 100 100 101 100 99 100 100 98 96 95 97 99 99 100 101 100 96 93 91 89 88 89 91 93 95 96 96 96 99 101 102 102 103 103 103 102 102 101 99 97 97 99 100 101 101 101 100 100 100 98 98 97 97 97 99 100 100 100 100 100 100 100
101 101 101 100 100 100 100 99 100 100 100 101 101 101 100 101 99 94 91 91 91 91 92 93 94 96 98 97 97 98 100 101 102 101 101 101 101 101 100 100 101 101 100 100 101 101 100 100 100 100 99 99 99 99 100 100 100 100 100 100 100 100 100
98 100 101 101 100 100 100 100 100 100 100 101 100 99 99 101 100 95 90 88 90 93 96 96 96 96 98 99 99 98 98 99 100 100 100 100 100 100 100 101 102 101 100 100 100 100 100 100 101 101 101 101 101 101 100 100 100 100 101 100 100 98 94
96 96 100 102 101 100 100 100 100 99 100 101 100 99 100 101 100 96 91 87 89 94 96 97 97 97 98 98 97 95 95 98 100 100 99 100 100 100 100 101 101 101 101 100 100 100 101 101 101 102 102 102 101 100 99 100 101 100 99 95 90 82 73
95 93 97 100 101 100 100 100 100 100 101 102 101 101 101 101 99 96 91 88 90 92 93 95 97 98 98 97 95 94 95 99 100 98 98 99 99 98 99 100 101 101 101 101 101 101 101 101 101 101 100 100 100 101 101 100 97 92 84 76 67 59 52
96 94 94 95 97 100 101 100 100 100 101 101 101 101 99 96 95 94 90 87 89 90 90 92 97 98 98 97 97 96 97 98 99 98 98 99 98 98 99 100 100 100 100 101 101 100 100 100 100 101 101 101 99 95 91 85 77 69 60 53 48 44 40
98 97 97 95 95 99 101 100 100 100 99 98 99 99 95 90 90 91 89 88 90 91 89 90 95 99 98 97 97 98 98 99 100 100 100 99 99 99 100 100 100 100 100 100 100 100 101 101 100 98 95 90 83 75 67 60 54 49 45 41 39 37 35

ECMWFFLT1_700_rhum_036.txt.gz
RH
51 47 48 50 53 57 60 62 63 64 66 71 79 87 93 96 95 87 78 75 75 76 82 89 95 98 94 89 87 81 71 58 46 43 54 71 86 98 101 100 101 97 88 88 94 96 97 98 98 99 100 100 100 100 100 100 100 100 100 99 96 93 90
51 49 50 52 53 54 56 60 60 59 63 71 78 87 97 101 100 92 84 83 86 88 89 90 92 96 98 99 98 93 87 79 64 51 48 52 62 78 92 99 102 98 91 87 90 92 94 97 98 98 98 98 100 100 99 100 100 100 100 100 100 98 92
52 51 52 53 53 53 52 53 53 55 62 70 78 89 99 102 102 96 91 93 96 97 97 97 98 98 99 102 101 95 93 91 81 67 58 53 50 55 68 84 96 99 94 89 86 85 88 91 94 96 98 99 99 100 101 100 100 100 101 100 100 100 97
54 53 53 53 52 50 48 48 51 56 63 71 81 94 101 101 102 100 98 100 100 100 101 101 101 100 100 103 101 95 93 93 86 78 71 64 55 48 48 58 75 89 95 94 89 81 79 83 88 93 98 101 100 100 100 100 100 101 100 99 98 98 99
58 55 53 54 54 51 50 51 54 60 66 73 85 98 102 100 102 102 100 100 100 100 101 102 102 101 100 99 96 95 97 96 89 83 80 77 71 61 50 46 53 66 80 91 96 90 78 74 79 86 94 100 101 100 100 100 100 100 100 99 96 94 94
59 57 56 56 55 53 53 55 58 64 71 79 91 101 102 100 103 103 100 100 100 100 100 102 102 101 99 97 94 94 99 102 98 91 85 85 86 80 69 60 54 55 63 74 88 96 89 77 72 74 83 93 98 99 99 100 101 100 99 97 92 89 88
61 61 61 59 57 57 57 59 62 67 75 86 97 103 102 101 103 104 101 100 100 100 100 101 103 100 98 98 98 97 100 102 102 101 94 88 89 89 84 78 70 67 69 72 80 92 95 88 79 73 74 84 95 100 98 97 97 96 94 90 85 82 82
67 68 67 64 61 60 61 64 68 74 83 93 100 102 101 101 103 104 102 100 100 100 100 101 103 102 99 100 100 101 102 101 101 103 98 88 84 85 84 82 78 75 78 83 85 88 92 93 92 87 82 84 92 96 92 88 86 84 83 82 81 79 79
75 74 72 68 65 65 67 70 76 82 89 96 101 101 101 101 102 103 103 101 100 100 100 101 103 102 100 101 102 102 101 101 101 101 96 89 85 83 81 79 75 74 79 90 94 93 92 93 94 95 95 95 92 86 82 84 86 87 88 86 84 82 81
88 85 81 78 74 73 74 76 80 85 89 95 100 101 101 102 102 101 102 102 101 100 100 102 103 102 101 101 102 103 102 100 99 97 94 92 89 86 83 79 74 71 73 85 98 99 95 93 91 90 91 93 93 87 81 82 88 95 98 95 89 84 82
99 98 95 92 90 88 87 87 88 90 91 95 100 101 99 99 100 100 101 102 102 101 101 102 102 100 100 101 101 102 101 98 96 93 90 88 86 82 81 78 77 76 73 78 94 102 99 96 89 84 85 85 86 87 80 76 83 95 101 99 95 89 84
102 103 102 102 101 101 99 98 98 98 97 97 99 101 98 95 95 98 100 100 100 99 99 101 102 100 101 102 102 101 101 99 96 93 89 87 84 81 80 78 79 84 82 82 94 101 100 98 89 82 88 90 85 81 76 74 83 94 99 99 98 93 88
99 101 101 101 101 101 101 102 102 102 102 100 98 99 98 94 92 93 95 96 94 93 95 99 100 100 101 102 101 100 100 98 96 96 94 94 92 88 83 81 84 88 85 86 97 101 99 101 95 85 89 96 94 91 89 89 93 97 98 100 100 96 93
97 98 100 100 101 100 99 100 101 101 101 101 99 99 98 96 94 92 92 94 93 90 92 98 101 101 100 102 101 98 97 96 96 96 97 98 99 95 88 86 89 91 85 85 96 101 98 101 101 94 93 98 100 99 100 100 100 99 99 100 101 100 99
100 99 99 99 99 99 99 100 99 99 100 101 101 101 99 98 98 96 93 93 94 93 93 95 98 96 92 94 97 97 97 98 98 99 99 99 99 97 93 93 96 96 89 83 90 100 100 100 101 99 98 99 100 100 101 101 100 100 100 100 101 100 100
101 101 100 99 96 96 99 97 94 96 99 98 99 100 98 96 97 97 96 94 93 93 93 92 90 86 84 87 92 93 96 100 100 100 100 99 98 97 96 98 102 101 92 84 87 97 100 99 100 101 100 100 100 101 101 100 99 100 100 100 99 99 98
98 98 99 100 99 98 99 97 93 95 99 98 98 100 100 97 96 96 97 97 96 94 94 91 87 83 82 85 87 91 98 102 100 100 101 100 97 97 96 96 100 101 95 85 85 93 99 100 100 101 100 100 100 101 101 100 99 99 100 100 100 99 98
99 98 98 100 100 99 100 99 95 95 97 98 98 98 98 100 99 98 100 101 100 99 97 94 92 89 88 88 91 97 102 102 99 101 102 97 91 90 90 88 91 95 92 85 82 87 95 99 100 101 101 100 100 100 100 99 98 98 100 102 101 100 100
101 101 101 102 101 98 97 98 96 92 90 93 95 93 94 98 101 101 102 101 100 101 101 100 99 96 93 93 96 101 101 100 100 101 99 94 89 83 79 78 81 85 85 84 82 82 88 94 98 99 100 101 101 100 100 100 100 101 102 102 100 99 100
101 102 102 101 99 95 91 92 95 93 87 87 91 94 95 97 99 100 101 101 101 101 101 100 99 97 95 95 98 101 101 101 102 101 98 95 89 79 74 76 81 84 87 87 85 83 85 88 90 91 92 93 95 96 97 98 99 100 100 99 96 94 96
102 103 101 99 97 93 89 87 89 92 88 83 84 88 92 94 96 96 97 97 98 96 94 94 94 94 95 95 96 98 99 98 99 101 98 92 85 81 81 82 83 88 93 92 87 85 85 85 84 83 83 82 81 82 85 87 87 88 90 90 88 88 89
102 102 101 100 96 92 90 89 87 88 88 83 78 78 83 87 89 88 87 87 87 86 85 85 85 87 91 94 96 97 98 98 98 100 99 92 85 87 90 88 85 90 94 90 85 85 85 84 81 77 76 75 74 74 75 74 74 75 76 76 77 78 79
103 103 102 102 99 94 92 91 89 87 87 85 81 76 76 82 86 85 82 80 81 81 81 81 82 86 92 97 99 101 102 101 100 101 101 98 94 95 98 98 95 96 94 87 82 82 81 80 78 75 72 70 68 69 69 68 68 69 67 66 65 66 67
100 102 102 101 102 101 97 93 89 87 86 85 82 79 77 79 82 81 79 79 79 80 80 80 82 86 90 95 97 100 102 102 101 100 100 100 100 100 101 102 101 99 96 89 83 79 76 75 75 74 73 73 72 71 70 68 66 65 63 61 59 60 60
100 102 103 101 102 103 101 96 88 83 83 85 84 81 78 75 72 72 73 74 74 73 74 76 81 87 94 98 100 101 102 102 101 100 100 100 100 100 101 101 100 98 96 91 87 84 81 80 79 79 81 86 88 84 78 73 70 65 61 57 55 55 56
99 100 101 102 103 103 101 99 93 83 81 84 84 82 79 74 70 68 67 67 69 73 79 85 91 97 100 101 100 101 102 102 101 100 101 101 100 99 99 99 99 99 97 92 90 89 88 88 90 91 94 98 98 93 85 80 76 71 65 59 56 54 53
96 97 99 101 102 102 101 102 97 86 82 86 88 84 81 78 74 72 73 78 85 92 96 99 101 102 102 101 99 97 97 100 102 101 100 101 101 100 98 95 96 99 100 96 91 88 88 90 92 95 98 99 97 93 88 84 81 76 69 63 60 56 52
95 99 101 101 100 100 101 102 99 92 89 92 91 85 82 83 84 87 91 95 97 97 96 95 95 96 98 100 100 97 93 94 99 101 101 100 101 101 100 98 97 99 101 101 98 95 95 96 96 96 99 99 96 93 90 88 85 79 70 64 63 60 54
100 100 100 100 102 102 101 101 101 99 97 96 92 89 90 94 96 97 96 93 87 85 86 88 88 88 90 93 97 99 97 95 96 99 101 101 101 101 101 101 100 101 101 101 101 100 100 100 99 99 101 101 97 94 93 95 96 89 78 71 68 66 64
101 100 99 101 102 102 101 101 102 102 101 99 97 97 98 97 96 94 91 87 84 82 85 88 89 89 89 92 95 99 101 101 100 99 98 99 99 100 100 100 101 101 101 101 100 100 100 100 100 100 101 101 99 95 95 99 102 98 90 85 84 83 82
99 100 101 100 101 101 101 101 100 100 100 100 100 100 99 98 98 97 93 89 87 88 89 90 92 92 94 96 98 99 101 102 103 102 99 97 98 99 100 100 100 101 101 101 101 101 101 100 100 101 100 101 101 99 98 100 101 99 96 95 98 99 99
100 101 101 100 101 101 101 100 98 96 97 99 101 100 100 100 101 100 95 89 87 89 90 91 93 94 97 99 99 98 98 99 101 103 103 100 99 99 99 100 100 100 100 100 100 100 100 100 100 100 101 101 100 100 100 100 100 99 99 100 102 103 103
101 101 100 101 102 100 98 100 99 96 97 99 100 100 100 101 100 99 94 89 86 86 88 91 93 93 94 96 95 95 96 97 100 103 103 100 99 98 99 99 100 100 100 101 101 101 101 100 100 100 100 100 100 101 101 100 100 100 101 102 104 102 101
102 102 101 101 102 101 101 101 100 97 96 98 99 100 100 100 101 100 97 92 90 90 90 91 92 90 89 91 92 93 95 95 95 96 97 96 95 95 95 96 96 97 98 99 99 98 97 95 95 96 97 99 100 101 99 97 97 98 100 101 102 101 100
101 103 103 101 100 102 103 103 101 99 97 99 100 100 101 100 100 102 101 97 95 96 95 92 90 89 88 90 92 93 93 92 91 90 91 90 89 90 90 91 92 93 94 94 95 96 96 96 97 98 99 101 101 99 97 96 97 99 100 101 100 100 100
101 102 102 101 100 101 103 103 102 100 99 99 101 101 101 100 99 101 102 97 95 98 99 95 92 91 89 90 93 94 93 92 91 90 90 89 88 89 90 91 92 93 93 95 96 97 99 100 101 101 99 97 97 98 100 102 102 101 100 100 100 100 100

ECMWFFLT1_700_rhum_039.txt.gz
RH
64 61 57 53 50 47 47 45 45 48 51 54 57 59 64 70 75 77 75 73 73 74 78 82 85 83 75 70 68 66 68 69 65 62 64 58 41 41 58 75 87 96 99 99 101 100 100 100 97 95 97 99 100 100 100 100 101 101 100 100 101 100 100
66 65 62 57 54 52 51 50 48 50 51 51 52 55 60 67 72 74 72 71 74 78 83 88 93 91 82 77 75 75 79 80 76 74 75 71 57 46 51 61 70 82 92 98 100 100 100 100 101 99 98 100 100 100 100 100 100 101 100 99 100 100 100
67 65 62 58 55 55 54 52 49 48 46 46 46 49 57 65 69 69 69 72 77 84 89 93 98 94 87 87 90 91 95 96 94 90 87 82 73 60 54 59 65 68 77 89 97 100 100 100 100 101 100 100 100 100 100 100 100 100 100 99 99 100 100
67 64 61 58 56 55 54 50 48 47 45 44 45 48 56 63 65 66 70 75 83 90 95 98 101 97 93 95 99 99 100 101 100 97 93 91 89 81 68 64 68 64 60 70 83 92 98 100 100 100 101 100 100 100 99 100 101 100 100 100 100 100 101
67 63 60 57 56 56 54 51 50 49 50 50 49 50 54 59 62 66 72 79 88 96 100 101 101 100 98 98 98 100 101 101 100 98 97 98 99 96 84 72 69 64 55 54 65 77 87 95 99 100 101 100 100 100 100 100 101 101 100 100 100 100 101
70 65 62 59 58 57 55 53 52 51 50 52 52 53 56 60 64 70 76 84 94 100 100 102 102 100 100 99 98 100 101 99 99 98 99 101 101 100 97 88 76 67 60 55 54 61 70 80 90 95 99 101 100 100 100 100 100 101 101 100 100 100 100
76 70 67 64 61 59 57 55 54 53 52 52 54 56 60 66 71 77 84 91 98 102 100 101 101 100 100 100 99 101 101 99 99 100 100 102 101 101 102 99 88 76 68 62 57 56 58 63 73 82 89 96 100 101 100 100 101 101 100 99 99 100 100
90 82 76 72 68 64 61 60 58 56 55 55 57 61 67 74 81 86 91 94 98 101 100 100 101 100 100 101 100 100 100 100 101 101 101 101 99 100 101 96 90 83 76 68 62 58 53 52 58 66 72 82 92 96 94 93 95 96 95 96 99 100 100
100 97 91 86 81 75 70 66 63 61 61 61 63 66 72 80 88 93 94 93 95 99 100 100 101 100 100 101 101 100 100 100 101 101 101 100 98 100 100 92 88 90 89 81 71 63 55 48 48 52 57 65 74 80 82 83 85 86 86 90 95 100 101
100 100 100 98 95 91 86 80 75 71 70 70 72 75 79 85 90 94 94 93 94 98 101 100 100 100 100 101 100 101 100 100 101 101 100 100 100 100 100 97 95 98 99 94 85 76 66 54 46 43 43 46 54 65 76 80 79 78 78 80 85 93 99
101 101 100 100 100 99 96 92 90 87 84 82 82 82 84 88 92 94 95 93 92 97 100 101 100 100 100 101 101 100 100 100 101 101 100 101 100 100 100 100 100 99 96 92 89 85 79 68 57 48 41 39 43 56 73 82 82 81 78 76 76 79 86
98 99 99 98 96 96 97 96 95 95 96 95 93 92 91 92 95 97 97 94 92 95 99 100 100 100 100 101 100 100 101 101 100 100 100 100 100 101 101 100 100 98 93 90 88 87 83 75 67 59 52 46 42 50 68 83 90 90 83 79 78 73 73
95 95 96 94 91 91 95 99 98 97 98 99 100 100 99 98 98 99 101 99 94 92 96 99 100 101 100 100 101 101 101 100 101 100 100 101 101 100 100 101 101 99 94 91 89 86 80 73 68 63 59 57 56 61 73 84 93 96 91 84 79 73 69
99 98 98 98 96 93 93 97 100 100 100 100 100 102 101 101 101 99 100 102 99 94 93 95 99 101 101 101 101 100 101 101 101 101 101 101 101 97 96 99 102 98 93 90 87 82 76 71 68 64 60 65 77 86 91 92 92 93 93 89 82 79 82
101 101 101 102 102 100 96 92 92 98 102 99 97 100 100 101 102 100 98 98 100 99 94 93 98 100 101 102 101 100 101 102 101 100 99 100 101 98 93 96 101 97 91 88 86 82 77 73 73 70 67 72 86 96 99 99 96 94 95 95 93 93 97
100 100 101 101 101 102 101 95 88 92 99 97 95 97 99 99 100 101 99 97 97 98 97 96 99 101 101 100 100 99 101 102 100 95 93 95 100 100 95 95 101 101 96 94 91 87 83 80 80 79 79 85 94 99 100 100 100 101 100 98 99 99 99
102 100 100 100 100 100 102 100 93 90 94 98 99 99 98 100 101 99 99 100 97 95 97 98 100 101 100 98 98 100 101 102 98 91 89 93 99 101 97 94 98 102 102 101 98 94 90 88 85 83 86 94 100 100 100 100 100 100 95 87 84 86 85
102 102 99 98 98 97 99 102 99 92 90 94 97 93 91 96 100 97 97 101 101 97 95 95 96 96 95 94 95 97 98 98 94 89 90 96 101 99 93 89 94 101 102 101 101 101 98 93 88 84 85 94 100 100 100 100 99 98 94 86 80 79 82
102 102 99 97 96 95 97 101 101 95 88 89 91 89 89 94 98 97 95 97 101 100 98 96 95 92 90 88 89 91 91 91 91 90 92 99 102 96 86 85 93 100 100 100 103 103 97 92 91 89 86 90 98 101 100 100 99 99 99 97 93 91 93
102 101 100 98 97 98 98 100 102 99 91 86 86 88 91 97 100 100 98 97 99 100 100 100 99 96 94 91 90 91 91 93 94 92 93 98 96 85 81 88 96 97 96 98 101 101 97 93 93 93 89 90 96 101 101 100 100 100 100 101 100 100 100
102 101 101 98 95 95 95 94 98 101 98 91 85 83 87 96 101 102 100 99 99 99 99 101 101 100 99 98 96 97 97 98 99 97 98 100 94 84 87 98 101 98 95 92 94 96 95 92 92 91 90 90 95 100 101 100 100 100 99 100 100 100 100
101 100 101 99 97 96 93 89 90 96 100 99 91 83 82 89 97 101 101 101 101 101 100 101 100 100 100 100 100 101 100 100 101 100 100 101 98 94 98 102 101 100 97 91 90 92 91 86 85 86 87 88 93 98 100 100 100 101 100 100 101 100 100
101 101 101 100 100 100 97 93 90 90 93 99 97 88 80 80 85 91 95 97 99 100 100 100 101 101 100 99 98 98 98 99 100 100 100 98 96 96 100 102 101 101 97 90 88 91 90 86 82 82 84 85 89 94 96 95 96 98 99 99 100 101 100
101 101 101 101 101 100 99 99 96 90 86 91 95 91 82 78 78 81 85 88 91 93 93 93 94 94 93 93 91 92 95 98 99 100 99 97 93 92 97 101 101 101 99 93 88 88 88 85 82 81 81 82 85 89 91 90 90 91 94 95 96 97 99
102 102 101 101 100 99 98 100 100 93 86 86 89 88 84 82 80 79 80 82 84 86 86 85 85 84 84 85 86 90 95 99 101 100 100 99 95 94 97 99 98 100 101 97 91 88 85 84 82 81 81 83 86 89 90 90 89 89 89 90 92 94 96
96 101 103 100 100 101 100 100 101 97 91 88 88 87 87 86 85 84 83 82 82 82 82 82 83 83 84 86 88 90 93 96 99 101 101 101 99 98 99 97 95 97 100 98 94 91 88 87 88 86 85 86 90 94 95 95 95 94 92 90 91 92 91
88 98 103 99 99 101 100 100 101 100 97 96 94 94 93 92 91 90 88 86 84 84 84 87 89 92 94 96 97 98 98 98 100 101 100 101 100 100 101 100 96 95 97 97 96 95 94 93 92 91 90 91 94 97 100 100 100 100 98 96 94 92 88
88 95 100 99 99 101 100 100 100 100 100 100 100 100 98 94 91 91 90 90 92 94 96 98 99 99 100 100 100 101 101 101 100 100 100 100 100 100 101 101 99 98 99 99 99 99 99 97 95 92 92 94 98 99 100 100 99 99 99 98 96 92 87
94 95 98 100 101 101 100 100 100 100 100 100 100 100 99 97 96 96 98 100 100 100 100 100 100 101 101 101 101 101 101 101 100 100 101 101 101 100 100 101 101 99 100 100 100 99 97 95 94 94 93 95 98 100 100 100 98 98 99 97 94 91 88
99 99 99 101 101 101 100 100 100 101 101 101 101 101 100 100 100 101 101 100 97 94 93 93 96 100 101 102 102 102 102 101 100 101 102 102 100 100 100 100 101 100 100 101 101 101 99 96 95 95 95 96 97 98 99 100 100 101 100 96 92 89 86
98 99 100 100 100 101 102 101 101 101 101 101 101 101 100 100 101 101 99 95 91 90 90 91 96 100 101 102 103 103 103 102 101 101 103 102 101 100 100 100 101 100 100 101 101 101 101 100 99 97 96 97 98 98 97 98 99 99 96 93 92 92 88
98 99 101 101 100 100 101 102 102 102 102 102 102 102 102 101 100 100 98 94 90 90 92 94 97 99 99 100 101 102 103 103 102 102 102 101 101 101 100 100 101 100 100 101 101 101 101 101 101 100 99 99 100 99 98 98 99 98 95 94 94 93 90
101 100 100 100 100 101 101 102 102 102 103 103 102 102 102 101 100 101 101 96 91 90 93 95 96 96 95 96 97 99 101 101 101 101 101 101 101 101 101 100 100 100 100 100 100 100 101 101 100 101 101 100 100 100 100 100 100 100 98 95 93 92 91
101 102 102 101 101 102 103 102 101 101 101 102 102 101 100 100 99 100 100 94 89 88 90 93 93 92 91 92 94 96 97 99 100 101 102 101 100 101 101 101 101 101 101 101 100 100 101 101 101 101 100 100 100 100 101 101 100 100 100 97 96 97 97
96 98 101 102 102 102 102 102 101 100 100 101 101 101 100 100 100 100 98 93 87 86 89 91 92 91 89 90 94 96 97 98 100 101 103 102 101 101 102 102 102 102 101 101 101 101 100 100 100 100 100 100 100 100 100 100 100 100 100 100 99 100 101
92 95 98 100 101 101 101 101 101 101 101 101 101 100 100 101 101 102 100 93 87 89 93 93 93 92 90 91 94 95 94 95 95 96 97 97 97 98 99 100 100 101 101 101 102 103 102 101 100 100 100 100 100 100 100 100 100 100 100 100 100 100 101

ECMWFFLT1_700_rhum_042.txt.gz
RH
80 75 70 67 62 55 44 33 24 21 20 20 20 21 25 32 37 38 39 39 42 46 51 57 58 57 57 60 62 61 59 59 61 62 67 74 79 80 76 76 74 65 61 61 62 77 98 103 97 89 89 95 95 92 95 95 93 97 100 100 100 98 96
82 76 70 66 63 58 51 43 36 31 28 26 26 28 31 35 37 37 38 40 42 46 54 57 56 56 58 62 63 62 64 67 70 69 68 69 71 77 82 83 84 80 67 57 60 72 86 98 102 99 94 94 98 99 97 95 97 99 100 99 100 100 98
83 77 71 66 63 60 56 51 47 44 41 36 34 34 34 34 35 36 37 39 41 47 56 59 59 60 63 66 67 67 70 74 77 79 76 70 66 69 78 82 81 83 74 62 68 79 82 88 98 101 100 97 98 100 99 98 99 98 96 98 100 100 99
83 77 73 69 65 60 58 56 53 51 48 44 40 37 36 34 33 33 34 38 42 47 56 61 62 64 66 67 67 69 76 79 81 86 81 72 69 70 75 78 78 81 76 68 78 88 80 79 88 96 100 100 99 100 100 100 100 99 97 99 100 100 100
87 79 73 69 66 62 59 56 54 53 50 48 45 40 37 35 34 35 37 41 46 49 55 61 65 68 68 68 70 75 83 87 87 88 81 74 72 72 76 82 84 87 86 79 84 91 84 76 78 84 93 99 100 100 100 99 100 100 100 100 100 99 100
96 90 81 73 67 63 60 56 53 52 51 49 45 40 36 35 35 39 42 45 48 52 56 61 65 68 69 72 79 86 91 93 91 88 85 81 76 75 84 94 96 97 97 92 91 96 94 84 76 75 81 91 99 100 100 100 100 100 100 100 100 100 100
100 99 95 87 77 67 62 58 55 53 51 48 45 41 38 38 38 41 44 48 52 56 59 63 65 66 71 79 88 96 98 95 93 94 95 94 90 91 96 99 99 100 100 97 93 94 95 88 80 78 76 79 90 98 99 100 100 100 100 100 100 100 100
100 100 101 98 92 83 72 64 59 56 53 50 48 45 44 44 44 43 45 49 54 59 60 62 65 67 75 86 92 98 99 95 95 99 100 99 99 99 99 98 98 98 99 100 96 94 96 94 89 88 81 74 77 87 95 99 100 100 100 100 100 100 100
100 100 100 100 100 97 91 82 71 63 59 55 53 51 50 50 49 47 46 49 53 58 59 61 66 73 84 94 96 96 96 96 99 100 99 101 101 96 93 96 99 99 99 101 100 97 100 100 95 88 81 71 67 72 82 92 98 100 100 99 100 100 100
101 101 101 100 100 101 101 99 93 83 75 67 62 58 56 55 55 53 52 53 56 60 63 65 72 82 91 97 97 93 94 98 100 100 100 101 96 90 92 97 100 100 99 100 100 100 100 101 98 88 77 66 60 62 70 78 86 94 99 100 100 100 100
101 101 100 99 99 100 101 102 102 98 93 86 79 74 70 66 66 65 64 65 68 71 73 75 80 88 93 94 93 92 96 100 100 100 101 98 91 91 96 100 100 100 101 100 100 101 101 101 100 95 85 74 67 65 67 68 73 81 88 95 98 99 100
100 101 100 100 98 97 98 101 102 101 100 98 94 91 89 86 84 83 82 82 83 84 85 85 86 90 92 90 90 94 98 100 100 101 101 97 95 98 100 99 99 100 101 100 98 99 101 101 99 97 93 85 77 72 68 66 67 70 74 80 87 93 97
100 100 100 101 100 96 94 95 100 102 101 101 101 100 100 99 98 98 97 96 95 94 95 95 93 93 92 88 91 98 100 99 100 101 100 99 99 101 100 98 95 96 99 101 99 99 101 100 100 99 93 86 82 78 73 70 69 70 71 70 72 77 83
100 101 101 101 102 100 95 91 94 99 101 102 102 101 100 101 100 101 100 100 101 100 100 100 99 98 95 88 89 97 100 100 101 101 100 100 100 99 100 99 96 94 97 99 99 100 100 100 101 101 95 89 84 80 76 72 70 69 70 69 71 76 79
101 101 102 100 100 102 101 94 90 94 99 102 99 95 95 97 97 99 100 99 100 102 101 101 101 101 99 91 86 92 99 100 101 100 100 100 98 97 98 99 99 98 97 96 96 97 100 101 101 101 101 96 87 80 76 75 73 73 78 83 87 91 89
99 99 97 97 97 100 102 99 93 91 94 99 96 88 85 88 92 98 101 98 97 99 100 100 101 102 101 94 86 88 96 100 100 100 100 98 96 95 94 94 97 100 101 100 100 100 101 101 101 102 103 99 90 82 78 78 76 76 83 89 90 92 89
98 98 94 91 92 94 100 103 98 91 91 96 98 92 87 88 92 99 102 98 95 97 96 95 96 99 100 96 89 89 95 100 100 100 101 98 95 95 94 92 93 96 99 100 102 102 102 101 102 103 101 96 90 83 81 79 72 66 68 75 81 85 85
98 101 96 91 88 87 92 100 101 96 93 96 100 98 93 91 94 99 101 98 96 96 98 96 93 95 99 96 91 93 99 102 100 99 100 99 97 97 94 90 91 94 96 98 100 101 100 100 102 103 100 96 89 85 83 78 69 67 71 74 76 83 89
96 99 97 93 88 84 82 89 99 102 99 98 101 101 93 88 92 96 94 95 97 97 99 99 94 93 96 96 97 100 101 102 100 97 94 95 96 93 86 86 93 99 99 99 100 101 100 100 101 101 102 100 93 87 86 81 75 79 89 90 84 85 89
95 97 97 94 91 87 80 79 89 99 100 98 99 99 93 88 92 94 89 91 97 97 98 101 99 96 95 97 101 102 100 100 100 95 92 93 90 83 81 88 98 101 101 100 101 101 101 100 100 101 102 100 93 88 89 89 83 81 87 96 99 96 91
97 98 100 98 95 93 89 85 84 90 96 97 95 94 91 88 92 96 93 92 95 96 97 101 101 99 99 98 100 101 100 101 100 97 95 92 86 82 87 96 101 101 100 101 101 101 101 100 100 99 98 95 91 90 92 93 89 84 88 99 102 95 90
100 100 100 101 100 98 98 97 93 88 89 93 93 90 86 85 88 95 98 96 95 94 95 98 99 100 100 99 98 99 100 100 100 99 97 91 87 89 96 101 101 101 101 100 100 100 98 97 99 98 94 92 92 94 97 96 92 89 93 101 100 92 91
102 102 100 100 99 98 99 102 101 96 91 90 91 89 84 82 84 90 95 98 99 97 95 94 94 96 99 100 100 99 99 100 100 100 97 94 93 96 100 101 101 101 101 100 101 100 97 97 100 98 95 95 95 96 99 99 96 94 95 100 100 97 97
100 101 101 99 95 95 98 100 101 101 97 91 90 90 88 85 83 85 89 94 96 96 95 93 92 91 92 94 96 96 97 99 100 100 99 98 98 99 100 100 100 100 100 100 100 98 96 97 97 94 94 97 97 96 98 99 98 99 100 100 100 100 100
97 98 99 100 96 95 99 100 99 101 101 97 94 93 93 91 86 84 84 86 86 88 91 95 96 95 94 93 93 93 94 95 96 97 97 99 100 100 100 101 101 100 99 99 98 95 92 93 95 92 91 92 92 92 94 95 96 99 102 100 99 100 101
91 94 95 97 98 97 98 100 100 99 100 101 100 99 98 96 92 89 87 86 86 87 89 92 94 95 97 97 96 96 95 94 96 98 98 98 99 97 96 98 98 95 92 93 95 94 92 92 95 94 91 89 91 93 93 93 95 100 102 101 99 99 100
85 91 91 91 94 97 99 100 101 101 100 100 101 101 101 99 97 94 91 89 89 89 89 87 87 88 90 91 93 94 94 93 95 97 98 100 99 96 94 96 97 94 91 90 93 96 97 94 94 94 91 91 96 99 96 94 97 101 101 100 101 101 101
80 87 92 92 93 96 99 101 101 100 98 99 100 101 101 100 97 95 93 92 92 92 93 94 94 94 94 94 95 96 96 96 97 97 98 100 101 100 99 99 99 99 98 96 97 100 99 93 90 92 95 96 98 98 96 95 98 101 101 101 102 102 101
79 84 93 98 97 96 97 99 100 99 98 99 101 101 101 100 98 97 97 96 96 98 100 100 100 100 100 100 100 100 99 99 100 99 99 100 101 101 101 100 100 100 99 99 100 101 101 96 91 91 95 99 97 96 96 95 96 99 101 101 100 100 100
84 84 90 98 100 99 98 98 99 100 100 100 100 101 101 100 100 99 99 100 100 100 99 98 98 101 102 101 101 101 100 100 100 100 101 101 101 100 100 100 101 101 99 100 101 101 101 101 96 90 91 96 96 95 96 97 98 100 102 101 100 99 99
88 87 90 95 99 100 100 100 100 100 100 100 100 100 101 101 101 101 101 100 98 95 92 91 93 97 100 101 101 102 101 101 101 101 101 101 100 100 100 100 100 100 100 100 102 102 101 101 99 93 90 91 93 96 96 95 95 97 100 100 99 96 96
88 90 91 92 97 100 100 100 101 100 100 100 100 100 100 101 102 101 101 99 95 90 86 86 89 93 96 98 98 98 99 101 101 101 102 102 100 100 100 100 100 100 100 99 101 102 101 101 101 98 94 90 91 95 96 92 89 90 91 93 95 96 95
86 89 91 92 96 100 100 100 100 100 100 100 100 100 100 102 102 99 96 96 95 91 88 89 92 94 95 94 93 94 96 99 101 102 102 102 101 100 100 100 100 100 100 100 100 101 100 100 100 101 99 93 87 87 91 94 94 92 88 87 89 92 91
88 88 89 92 96 99 101 100 100 100 101 101 100 99 99 100 102 99 96 96 96 92 90 92 95 94 93 92 92 93 95 98 101 101 102 102 102 101 100 100 100 100 100 100 100 99 99 100 101 100 101 98 93 90 94 99 101 99 95 90 89 90 88
90 87 87 90 96 101 102 102 101 100 100 101 101 99 98 98 100 100 100 101 100 95 91 94 96 95 93 91 90 90 91 95 97 97 97 99 100 100 100 100 100 100 100 100 100 100 100 100 100 100 100 100 100 99 99 100 100 100 99 97 97 98 97
90 88 87 88 92 97 99 101 102 101 100 100 101 100 99 99 99 100 102 103 101 97 95 98 101 99 96 92 91 91 91 92 91 90 90 92 93 95 97 99 100 100 100 100 100 100 100 99 98 99 100 100 100 100 100 100 100 100 100 100 100 100 100

ECMWFFLT1_700_rhum_045.txt.gz
RH
103 102 98 94 89 84 78 73 71 72 71 68 65 58 44 30 19 17 19 22 30 38 37 33 30 30 30 31 32 33 37 42 44 47 49 49 49 48 46 46 57 67 55 41 46 51 51 56 53 35 27 25 16 11 8 8 12 13 13 14 17 34 45
102 101 97 91 87 83 78 73 70 69 67 62 56 46 33 23 20 20 23 28 33 34 32 29 28 28 31 34 36 37 41 44 47 50 51 52 54 52 49 48 50 56 59 49 43 47 52 63 68 49 34 37 31 21 16 10 13 19 18 16 22 41 56
101 101 97 89 84 81 77 72 68 66 63 58 50 39 29 25 24 26 28 31 32 30 28 27 27 29 33 37 38 40 44 48 52 56 56 56 58 59 56 53 52 54 59 58 52 52 54 62 72 59 42 43 44 36 29 19 14 23 29 26 28 49 73
100 101 100 94 85 78 75 71 67 62 59 56 48 38 29 25 25 27 29 29 28 27 25 25 27 31 35 37 39 43 49 55 59 62 62 59 60 63 60 55 56 58 57 57 58 58 58 59 65 64 54 49 48 43 39 37 36 34 37 42 43 56 81
100 100 101 100 94 85 76 70 67 63 60 56 52 45 36 29 25 24 25 24 24 23 24 26 29 32 35 37 41 46 52 57 61 62 63 64 63 65 64 61 63 65 64 62 58 55 56 59 66 72 67 58 53 47 44 57 74 66 48 52 65 73 86
100 100 100 100 100 97 88 76 67 62 60 58 56 52 46 39 33 28 24 23 22 23 26 29 30 32 35 39 43 46 52 58 60 62 65 67 69 70 70 71 72 73 75 73 65 57 54 59 71 78 75 70 64 56 52 64 90 97 75 61 74 91 96
100 100 100 100 100 101 99 92 81 69 62 58 56 54 52 48 44 40 35 31 29 29 30 31 32 34 38 42 43 45 51 59 62 65 66 67 70 73 75 79 80 81 82 77 74 74 68 64 72 77 76 77 75 69 68 72 84 101 99 77 70 89 102
101 101 102 101 100 100 100 100 97 89 77 67 60 55 53 51 48 45 43 39 37 35 33 32 33 36 39 41 43 45 51 60 65 67 66 67 73 79 84 90 90 90 90 83 80 86 85 78 80 82 81 82 82 78 77 79 81 90 101 95 78 79 95
101 102 102 101 100 100 101 100 100 101 96 85 73 63 57 54 51 48 46 43 41 38 36 36 34 36 40 43 46 50 54 61 67 67 66 72 82 91 96 99 98 97 97 93 88 89 91 91 91 92 91 92 92 85 77 82 90 90 93 101 94 82 88
100 100 101 100 97 97 101 102 100 100 101 99 93 82 72 64 58 54 51 48 46 44 43 42 40 38 42 46 51 55 59 63 66 67 72 81 90 98 101 100 99 99 100 99 97 95 96 98 96 95 97 96 94 94 89 84 88 90 89 97 101 94 90
101 101 102 102 98 94 95 100 102 101 100 100 101 99 93 84 74 66 60 56 53 50 48 48 47 45 46 50 56 59 62 65 68 75 86 91 94 99 101 99 99 100 100 100 100 99 100 100 96 93 95 93 88 90 92 84 76 79 88 95 99 99 96
102 102 103 103 102 98 93 92 97 101 102 100 100 101 101 98 94 86 77 70 66 62 58 56 55 55 55 56 58 60 63 69 76 88 97 96 95 100 101 100 100 100 100 100 100 100 100 98 95 92 93 95 90 85 88 88 78 72 78 89 94 97 98
100 99 99 99 101 103 98 92 89 94 101 101 99 100 101 101 102 100 95 90 85 81 77 73 70 70 71 72 72 69 68 75 87 95 97 95 96 100 100 99 100 101 100 100 100 101 100 99 98 96 96 98 96 89 88 93 91 81 80 85 89 92 96
95 94 93 94 98 101 103 99 90 88 94 98 97 98 100 102 102 102 101 100 98 94 91 89 86 84 85 88 91 87 83 86 93 96 94 95 97 97 98 100 100 95 91 91 94 98 99 100 99 96 95 97 98 97 95 97 100 97 94 93 88 89 96
91 90 89 91 94 96 102 104 98 92 90 92 94 93 93 95 97 100 101 99 99 100 99 96 94 92 92 95 98 99 96 95 94 94 95 99 100 96 96 98 95 89 86 89 93 96 97 100 100 98 95 91 93 99 101 100 101 101 101 101 96 92 96
92 89 86 89 91 90 94 101 102 100 94 91 93 92 89 86 83 87 92 94 96 100 101 101 99 96 95 96 98 100 101 98 94 94 99 101 100 99 98 95 91 89 92 97 100 100 98 97 99 101 98 92 90 96 102 103 102 100 98 99 100 97 95
93 91 87 89 89 84 84 89 97 104 102 96 92 90 90 88 79 74 78 88 96 99 101 103 102 98 95 93 94 98 102 100 94 94 101 102 99 101 99 94 93 96 99 101 102 102 102 99 99 101 101 99 97 99 102 101 99 98 96 97 100 100 95
92 91 88 88 89 86 81 82 90 98 101 101 98 91 88 89 86 80 79 87 93 95 98 102 102 101 97 91 91 96 101 101 96 94 97 98 98 101 98 93 97 102 102 102 102 102 102 101 102 101 100 99 99 100 101 99 97 98 99 98 96 96 98
90 91 90 88 91 95 93 89 91 93 94 97 99 96 90 86 87 88 89 91 90 90 96 99 97 99 99 93 91 95 99 101 99 94 92 92 92 92 89 90 99 103 101 101 101 101 101 101 102 101 98 97 98 100 100 99 99 99 101 97 89 89 97
91 95 96 95 97 102 102 98 96 96 94 93 94 95 93 88 86 88 91 94 93 91 96 98 95 96 99 97 92 92 97 100 98 93 92 91 88 83 83 91 101 103 101 101 101 101 102 102 101 100 97 97 100 101 98 97 100 100 98 96 91 89 92
97 101 100 100 101 102 102 100 99 100 100 97 94 94 92 89 88 87 88 91 93 92 95 98 98 98 100 100 95 91 92 94 94 91 90 87 83 81 86 95 100 101 101 102 101 102 102 101 100 100 98 99 100 98 94 94 99 99 96 96 96 92 89
100 101 101 102 101 101 102 103 101 100 101 101 99 97 93 90 89 88 85 84 87 91 93 96 98 98 98 100 99 95 90 89 91 91 89 85 83 85 91 96 96 97 100 100 100 102 102 101 100 100 99 100 99 96 93 95 99 100 97 97 98 96 91
99 99 101 102 101 99 101 102 101 100 100 101 101 101 98 95 92 90 86 81 80 85 89 90 93 95 96 97 100 100 96 94 95 95 91 88 89 93 97 99 96 95 96 97 100 101 100 99 100 100 100 100 100 99 98 99 101 100 98 99 100 101 98
98 99 100 99 97 97 100 100 100 100 100 100 101 101 101 99 97 94 90 84 81 84 87 90 94 97 99 100 100 100 99 99 100 99 97 95 96 99 101 101 99 97 98 99 101 101 98 95 96 98 99 99 101 102 101 100 100 97 96 99 100 101 101
94 95 98 97 93 93 100 102 100 100 101 101 100 100 101 102 101 98 93 89 85 84 85 89 94 97 100 101 101 100 100 100 100 101 99 99 100 101 102 102 99 98 100 100 99 100 99 94 90 94 100 101 100 100 99 101 102 98 96 99 101 100 101
87 87 92 97 95 91 94 101 101 100 101 102 101 101 101 101 101 100 97 91 86 83 81 83 87 91 94 97 98 98 99 99 101 102 101 99 99 99 100 101 99 100 101 98 93 92 92 89 89 95 101 102 100 99 100 102 102 101 100 101 101 101 101
85 82 83 92 97 94 91 95 99 99 99 100 102 102 102 102 102 102 100 97 92 88 85 84 84 86 88 91 92 91 91 91 93 97 99 101 101 101 100 97 96 98 99 94 89 89 90 90 95 100 102 101 100 101 102 102 99 98 101 102 101 102 102
87 83 79 82 89 93 92 93 96 98 95 95 98 101 102 103 103 101 101 101 98 96 94 92 90 89 88 89 90 89 89 88 87 88 90 92 95 98 100 99 97 98 98 95 94 97 98 98 100 102 102 102 103 100 99 100 100 99 99 98 99 101 102
93 87 81 78 80 87 92 93 96 98 96 94 96 99 101 102 101 101 101 101 100 100 99 98 98 97 97 97 97 97 97 96 94 93 91 90 90 92 94 97 98 99 99 99 100 101 101 100 101 101 102 103 102 97 96 99 102 102 99 96 96 99 101
97 91 85 80 79 84 92 96 98 99 99 98 98 100 101 101 101 101 101 100 100 101 102 100 99 97 97 99 100 101 101 101 100 100 99 98 97 95 94 95 97 98 98 99 100 101 100 98 97 98 100 102 101 97 97 100 101 101 101 99 97 98 101
97 94 90 85 81 83 92 100 101 99 100 100 99 100 102 102 100 101 100 100 101 102 101 97 93 90 90 93 97 100 102 102 101 101 101 101 101 101 100 99 99 100 100 100 101 101 100 97 93 93 98 101 100 98 99 101 102 102 103 101 98 99 101
92 92 92 89 85 83 88 97 101 100 100 101 101 101 102 100 99 101 100 100 102 102 98 92 88 85 86 90 95 98 99 100 102 103 102 102 101 102 102 101 100 100 100 101 101 101 102 100 96 95 98 100 99 99 101 101 101 103 104 102 99 100 102
89 89 90 89 88 86 88 95 101 101 100 100 101 102 102 99 98 100 101 101 102 100 96 92 88 85 85 89 94 96 95 95 99 102 102 102 101 101 101 101 101 101 100 100 100 100 101 101 98 97 100 100 100 101 101 100 101 103 103 101 101 101 102
96 93 91 89 89 90 93 98 101 100 100 101 100 101 102 100 97 97 100 103 103 100 96 93 90 87 89 93 95 95 93 94 97 100 102 102 102 102 101 100 101 101 101 101 101 100 100 101 99 99 100 100 101 101 99 98 99 99 97 97 98 101 102
100 95 90 89 90 92 96 101 103 101 100 100 100 100 101 100 96 93 94 98 102 103 101 97 93 92 95 98 98 95 94 94 95 97 99 100 101 103 102 100 101 102 102 101 101 101 100 100 99 100 100 100 101 102 101 98 94 90 90 91 92 95 99
98 94 91 89 88 89 93 98 101 102 101 100 100 101 102 101 98 95 94 97 101 103 102 100 98 98 100 100 98 95 93 92 93 94 95 95 97 99 102 102 102 102 102 101 101 101 101 101 100 101 101 100 100 101 102 100 95 91 92 95 94 95 99

ECMWFFLT1_700_rhum_048.txt.gz
RH
98 99 99 100 100 96 88 81 78 79 78 74 69 66 63 63 64 64 62 65 67 62 52 42 33 21 13 11 10 8 9 14 20 25 27 26 25 26 26 27 27 23 13 8 11 11 7 6 9 10 8 7 7 7 8 9 12 16 21 25 27 26 25
98 100 100 99 100 100 95 87 78 76 75 72 68 65 64 62 60 59 58 58 61 63 60 49 33 19 12 11 10 8 8 14 22 29 29 28 30 31 30 33 36 35 28 20 19 19 14 12 14 14 12 10 8 7 8 9 10 11 14 18 22 26 26
99 100 100 100 100 100 100 96 87 79 73 71 69 65 62 60 54 48 45 44 44 45 44 36 22 14 12 11 10 8 10 18 28 32 32 31 34 36 35 37 40 43 42 38 34 30 25 22 23 19 15 16 17 15 11 9 11 12 13 13 15 19 23
100 100 100 101 100 99 100 100 97 89 79 72 69 66 62 58 51 44 37 33 30 27 23 18 13 12 13 12 12 14 21 29 33 33 32 31 35 39 38 38 42 46 47 46 43 39 34 31 31 28 22 22 25 25 19 12 11 14 16 15 14 14 16
100 101 100 100 101 100 99 100 100 99 91 79 69 66 64 61 55 48 40 32 27 24 21 18 15 15 17 20 23 27 32 33 31 30 30 32 36 42 43 44 47 51 52 51 47 43 40 38 37 35 30 29 30 31 27 19 13 14 17 17 16 15 14
101 102 101 100 101 101 100 100 100 100 99 91 79 68 63 62 61 57 50 42 33 28 25 25 25 25 26 29 31 32 31 29 28 27 30 35 41 46 50 53 56 58 58 58 54 48 46 45 43 40 38 39 40 39 38 37 33 26 20 16 14 15 15
100 102 102 101 100 101 101 101 100 100 100 99 94 84 72 64 61 60 58 54 47 40 33 29 28 28 29 30 29 28 27 25 25 28 33 41 47 53 58 61 65 68 66 63 59 53 50 49 47 45 42 42 45 46 48 52 52 43 31 23 17 14 17
95 97 101 102 100 101 101 101 101 100 99 99 100 98 91 79 69 63 60 59 57 53 48 42 36 31 28 27 25 24 24 25 30 36 41 46 51 58 64 65 66 69 67 62 59 56 54 55 54 52 50 50 53 50 44 46 52 53 50 47 39 26 21
91 91 96 100 100 101 100 100 101 101 100 100 99 100 100 95 86 77 69 65 61 59 57 54 50 46 41 37 34 33 33 34 40 45 47 49 54 62 70 71 68 67 67 66 64 63 64 66 67 67 65 64 60 49 44 51 62 64 62 62 59 46 34
91 92 95 98 99 101 100 99 99 100 101 101 100 100 100 100 98 94 87 79 71 67 64 61 57 54 51 48 45 43 43 43 44 46 48 51 56 65 77 82 77 74 74 75 72 69 73 77 77 77 74 69 64 62 65 71 74 72 71 75 76 63 50
90 94 97 97 97 100 101 100 98 98 99 101 101 101 101 100 100 100 99 94 88 82 76 71 65 60 56 52 48 45 45 45 46 47 50 54 59 68 80 86 84 80 82 85 84 81 84 87 84 81 80 78 79 82 81 78 78 83 87 92 91 75 58
91 93 94 93 94 98 101 101 100 99 99 101 100 100 101 101 100 100 100 100 99 95 89 83 77 70 63 57 53 50 49 48 49 52 55 58 63 71 81 85 84 84 89 95 96 94 94 95 91 88 91 95 96 93 86 82 86 94 97 97 97 86 70
93 93 92 91 94 98 101 102 101 100 101 101 101 101 101 101 100 101 101 101 100 100 99 96 93 86 78 69 60 54 51 51 53 56 61 65 68 72 79 82 83 88 95 100 102 100 99 98 95 95 99 102 100 95 92 92 92 93 94 94 94 88 81
94 94 94 94 94 96 101 103 101 100 101 100 101 102 102 99 96 98 103 104 102 101 101 100 100 97 93 88 79 68 60 56 56 59 63 67 70 71 73 77 85 95 100 101 100 99 99 98 98 100 101 99 96 91 92 97 95 89 87 88 91 89 86
91 92 94 96 93 92 98 102 101 101 101 100 100 100 101 101 97 94 97 102 103 103 99 95 96 97 96 96 93 88 81 73 68 67 67 67 67 69 70 76 88 100 104 101 96 93 96 99 99 101 101 99 98 96 95 99 97 91 89 90 93 92 88
90 91 92 93 93 91 93 97 100 102 102 101 100 100 100 103 101 96 93 94 98 101 96 90 92 97 98 98 98 97 95 92 88 85 83 79 75 73 74 81 93 101 104 102 98 95 98 101 100 101 100 99 100 101 101 102 100 96 96 96 95 93 90
93 94 89 89 92 91 90 93 98 102 102 101 102 102 101 102 101 99 95 91 92 94 92 90 94 100 100 99 100 101 100 99 98 97 95 93 89 86 86 91 99 103 104 103 101 100 101 100 98 97 97 97 99 101 102 101 98 97 100 100 96 95 96
92 94 88 87 93 94 94 97 100 101 101 101 102 102 102 101 100 99 98 96 95 93 90 90 98 103 101 97 98 101 103 101 99 98 97 96 96 96 96 99 103 103 103 103 102 102 100 97 95 95 96 98 100 101 101 98 95 96 100 101 98 97 99
90 91 87 88 94 98 99 100 102 101 99 100 101 100 101 101 99 99 100 99 99 97 91 92 99 103 101 100 99 100 102 100 96 95 96 96 97 96 96 100 103 103 103 103 101 101 99 96 96 98 100 100 100 101 101 99 97 99 100 101 99 97 96
89 90 89 92 96 100 101 100 100 100 100 100 100 100 100 101 100 100 101 101 102 100 94 93 99 102 100 101 101 101 101 99 93 92 95 98 96 91 91 98 103 103 103 103 101 100 100 99 100 100 100 100 100 100 102 100 99 101 100 97 95 91 87
90 91 94 98 100 101 101 100 100 100 100 100 100 100 100 100 100 101 102 102 102 101 97 96 99 101 101 100 100 101 101 98 93 91 94 98 94 89 93 101 104 102 103 103 101 101 100 99 99 99 99 100 99 97 98 99 98 99 98 95 94 92 86
93 90 93 100 103 103 102 101 100 99 98 99 100 100 100 100 100 100 100 101 100 100 100 98 95 96 100 101 102 103 101 99 97 93 93 97 96 94 98 103 102 101 102 101 100 100 99 96 95 96 99 100 97 93 91 92 92 94 95 96 99 101 94
95 90 90 96 101 104 103 101 101 100 99 99 100 100 100 100 100 100 100 100 100 100 100 97 93 95 100 102 102 102 101 100 100 96 93 96 97 95 99 102 101 99 98 95 94 95 96 95 93 95 97 96 93 92 91 91 92 95 98 99 101 102 98
97 95 91 91 94 99 102 101 100 100 100 100 101 100 100 100 100 100 100 100 100 100 99 97 94 96 101 102 101 102 100 99 100 97 95 95 93 92 95 98 97 95 92 89 89 89 91 93 95 96 96 96 96 96 96 95 96 98 100 100 100 100 97
98 101 96 90 88 90 95 98 100 100 100 100 101 101 100 100 100 100 100 100 100 100 98 96 92 90 94 98 100 102 102 100 100 99 96 94 94 95 96 95 93 92 91 88 87 87 88 90 91 92 95 100 102 99 97 98 100 100 99 97 96 97 94
92 96 95 94 91 88 88 91 95 98 98 98 100 102 101 100 100 100 100 100 100 100 100 99 96 92 91 93 95 99 101 102 101 101 99 97 97 98 99 99 98 98 97 93 89 88 87 86 88 93 97 101 101 97 96 99 101 101 100 97 95 97 96
86 85 86 90 93 92 88 87 90 94 96 96 96 98 101 102 101 100 100 100 100 100 100 100 101 99 95 93 93 94 96 99 100 101 101 101 100 98 97 97 97 99 99 97 95 93 93 91 92 94 96 96 97 98 99 100 101 101 101 100 99 99 100
83 80 81 86 89 89 87 86 88 93 96 95 92 91 94 98 100 100 100 101 100 100 100 99 101 102 101 99 98 96 95 97 99 99 99 100 101 100 99 96 94 93 93 94 94 94 97 99 97 94 94 96 98 100 101 101 102 102 101 100 100 100 100
82 83 86 89 90 88 85 83 84 88 93 95 94 89 87 91 96 98 100 101 100 100 100 100 100 101 101 101 101 100 99 100 101 100 100 100 100 101 102 101 99 96 94 94 93 91 94 98 98 95 96 99 100 100 101 100 100 102 101 101 101 100 100
86 89 93 95 94 91 88 85 82 82 86 92 95 92 88 90 96 99 100 102 101 100 100 100 100 100 101 100 100 100 100 100 100 100 101 101 101 101 102 102 102 101 100 99 98 95 94 97 97 93 93 96 97 97 99 100 100 101 101 101 101 100 100
91 96 99 99 96 93 91 89 86 83 84 89 94 95 92 93 97 100 101 102 102 100 100 100 100 101 102 102 101 101 101 100 100 100 100 100 100 100 101 101 101 102 102 102 101 100 99 100 100 96 94 96 97 97 99 101 100 101 102 101 100 100 100
97 99 99 97 96 95 93 90 87 86 86 88 94 99 99 97 96 98 100 103 103 101 100 100 100 100 102 103 102 101 101 101 101 101 101 101 101 100 100 100 100 100 101 101 101 101 100 100 101 100 98 99 100 100 101 101 100 101 103 101 99 99 100
99 98 96 95 97 98 95 91 89 88 89 91 94 98 101 100 97 96 99 103 104 102 100 100 100 100 102 103 102 101 101 100 98 98 99 100 101 101 101 101 100 100 100 100 100 101 100 100 100 100 100 100 100 100 101 101 100 102 104 101 95 95 99
101 100 99 99 97 96 96 95 94 94 95 97 98 98 100 102 100 98 99 102 103 102 102 101 100 100 102 102 100 99 99 98 95 94 93 94 97 100 101 102 102 102 101 101 100 100 100 100 100 100 100 100 100 100 100 101 100 101 102 99 94 95 100
102 102 102 100 97 95 95 96 96 96 98 101 102 100 100 103 103 100 100 102 104 103 102 101 100 100 101 102 100 99 100 99 96 94 92 92 94 96 99 102 104 104 103 102 101 101 100 100 100 100 100 100 100 100 100 101 100 100 101 99 95 97 102
99 99 99 98 95 93 92 93 94 96 98 101 102 101 100 102 103 101 101 102 103 102 101 100 100 100 100 102 102 101 102 102 100 97 95 94 94 94 95 97 100 103 104 103 100 100 101 101 100 100 100 100 100 100 100 100 99 100 101 99 96 99 102

ECMWFFLT1_700_rhum_051.txt.gz
RH
90 93 94 93 93 95 96 95 93 95 93 85 75 70 70 67 63 60 57 55 54 55 56 57 59 61 59 50 38 28 21 14 11 13 18 31 53 76 88 91 96 81 44 34 48 46 35 33 29 24 21 17 15 14 14 14 14 14 15 15 16 16 18
93 95 96 96 96 97 99 99 97 97 98 95 83 72 68 68 64 60 57 55 52 51 54 55 54 56 62 64 57 46 37 28 21 17 14 19 39 61 74 83 94 86 54 33 38 40 33 30 28 22 18 15 13 11 10 11 11 12 13 13 13 14 15
89 91 93 95 97 99 100 100 99 99 99 99 93 80 69 65 63 60 54 49 44 39 39 40 39 40 47 58 64 62 54 42 30 26 21 15 20 33 44 57 73 72 48 24 19 21 18 16 16 14 12 11 11 11 9 9 9 9 10 11 12 12 12
87 87 88 91 94 99 102 101 100 100 99 97 95 88 77 66 61 57 50 41 35 30 27 27 27 27 30 35 43 52 58 54 43 37 33 21 12 12 17 24 37 45 39 25 15 11 9 9 9 10 10 11 12 12 11 9 9 8 8 9 9 10 11
86 86 86 87 89 95 101 102 100 100 100 96 94 92 85 76 66 58 52 44 37 31 27 26 25 25 25 23 22 25 33 39 39 35 28 19 12 10 8 10 24 42 49 40 26 16 13 12 12 12 12 14 16 16 16 14 11 9 9 8 8 9 9
85 86 86 85 85 89 98 102 101 99 99 97 95 93 89 84 76 67 60 55 49 43 37 32 29 26 26 26 23 19 17 17 18 18 16 13 12 13 15 20 34 46 50 45 35 27 25 24 24 22 19 22 26 26 24 22 18 14 11 9 8 8 8
82 85 85 85 84 85 92 100 102 99 97 97 98 96 93 89 86 80 73 65 60 57 53 48 43 36 32 29 27 26 23 20 17 16 16 16 18 24 32 39 42 42 41 40 36 33 34 36 36 34 31 33 39 38 34 32 28 21 15 11 9 8 7
78 82 86 87 84 84 90 98 101 98 96 97 98 99 97 92 90 91 88 79 71 66 63 61 58 54 48 42 36 31 29 28 27 27 26 27 29 34 40 40 37 36 36 39 40 37 37 41 43 44 43 42 46 46 40 35 32 26 20 17 15 13 11
75 79 86 88 85 86 93 100 102 98 93 95 98 100 101 97 92 93 94 91 88 82 75 70 67 66 63 59 52 46 39 33 30 29 30 31 32 33 34 32 30 32 37 48 56 50 48 54 54 50 49 48 49 49 42 40 43 38 28 24 24 23 20
75 79 85 88 85 88 96 102 103 97 93 94 97 99 101 101 98 95 93 94 97 96 90 85 80 76 73 69 65 60 55 48 42 36 31 30 30 29 29 28 29 32 39 56 69 69 73 80 71 59 57 55 54 55 51 50 51 44 35 36 42 39 31
78 84 89 87 85 90 99 103 101 98 95 95 97 97 97 100 101 99 97 97 98 99 99 97 94 90 86 83 78 72 65 59 55 50 45 41 38 36 36 37 39 41 45 56 70 79 89 91 78 69 70 67 62 64 63 61 59 54 49 53 59 53 40
81 90 94 89 86 92 101 103 102 100 98 96 95 94 93 95 99 101 100 99 99 99 100 100 100 99 98 96 94 89 82 73 64 58 54 53 50 48 48 49 50 50 50 60 75 86 90 88 81 75 75 74 74 75 77 76 75 71 68 70 75 65 47
82 93 99 92 87 92 100 104 102 100 98 96 96 96 93 90 92 97 100 101 100 100 100 100 101 101 101 101 100 100 98 92 82 68 58 55 54 51 50 50 51 52 55 67 83 86 82 82 82 76 74 80 86 88 90 89 87 85 86 87 84 72 59
81 93 100 94 87 91 99 104 103 100 100 100 100 101 99 93 88 90 95 99 101 101 100 101 102 100 100 101 100 101 101 100 98 88 70 57 53 53 52 49 50 53 57 69 81 81 76 79 80 77 77 85 92 94 96 96 96 98 99 95 88 81 76
82 92 97 93 87 89 97 103 101 97 98 100 101 101 101 99 94 92 93 96 99 101 100 100 101 100 98 96 95 99 101 100 103 101 89 71 57 54 56 56 54 56 60 69 78 81 79 80 81 83 83 85 91 97 99 100 101 103 101 96 93 88 82
86 94 95 90 88 89 95 98 93 90 95 99 101 101 100 99 98 97 97 97 99 100 101 102 101 100 99 95 92 96 101 100 99 100 99 90 74 62 59 61 62 64 68 74 78 82 82 81 86 93 91 89 95 101 101 100 101 101 99 96 93 85 77
89 97 93 89 89 90 91 92 91 93 99 100 99 101 101 99 98 98 99 101 101 100 99 101 100 99 99 98 96 97 100 101 99 94 93 96 93 81 70 65 67 71 75 78 81 86 90 91 95 100 98 96 100 101 100 101 100 99 100 99 95 84 77
94 97 91 88 90 90 90 92 95 99 100 97 98 101 100 100 101 100 100 100 101 100 100 100 100 98 95 94 95 96 97 101 101 93 87 91 97 96 88 79 75 74 75 79 85 92 98 99 100 102 100 99 101 100 100 101 98 97 99 100 98 91 86
97 96 90 89 92 91 89 92 98 102 97 92 96 100 99 99 100 100 100 100 100 100 100 101 101 100 97 94 95 97 99 101 101 96 93 95 97 97 95 94 92 88 85 86 92 97 100 99 99 100 100 100 100 101 101 101 100 99 97 94 92 92 92
99 96 91 92 94 91 89 91 96 101 98 93 94 98 98 98 98 96 96 96 97 99 100 99 100 101 101 100 100 99 99 101 101 99 99 100 98 95 96 100 102 100 98 98 99 100 100 100 100 100 100 101 102 102 102 101 99 96 93 89 87 89 89
101 97 92 94 94 91 91 92 95 100 101 100 100 101 100 98 97 96 94 93 96 100 101 100 100 101 101 101 99 98 98 99 101 101 101 99 98 98 100 102 101 101 100 101 100 100 100 101 100 100 100 101 102 102 100 98 95 93 92 92 92 94 93
102 98 94 94 95 94 94 96 98 100 101 102 102 102 102 100 98 98 98 97 99 101 101 100 101 101 101 100 99 99 99 100 100 101 101 99 99 100 101 101 101 101 101 101 100 100 101 100 100 100 101 101 100 98 95 94 94 95 96 96 95 96 95
102 99 94 94 96 97 97 99 100 100 101 101 101 100 101 100 100 100 99 99 99 99 99 101 102 101 100 101 101 101 100 100 100 101 101 100 100 101 101 100 100 101 100 99 100 101 101 100 101 101 99 96 94 92 91 94 98 99 98 94 90 88 87
103 100 94 91 94 99 101 102 102 101 101 101 100 101 102 102 101 100 99 99 99 98 98 100 102 101 100 99 99 99 98 99 100 101 101 101 100 101 101 100 99 100 99 99 100 100 99 99 99 97 93 92 93 94 96 100 101 100 95 89 84 82 81
102 100 95 91 94 98 101 101 102 102 102 102 101 102 103 103 102 101 100 99 99 98 98 100 100 101 101 100 99 99 99 99 100 100 101 101 100 101 101 101 100 101 101 100 97 95 95 96 98 97 96 97 99 101 101 99 97 94 91 89 87 87 87
102 100 95 93 96 99 100 101 101 100 100 101 101 101 102 103 104 104 102 100 98 97 98 100 100 100 101 102 102 102 102 101 101 101 100 100 100 100 101 102 102 103 102 99 95 94 94 95 97 99 99 100 102 101 98 94 91 91 95 97 96 96 96
102 100 93 90 93 96 97 100 101 99 99 99 98 98 99 100 102 104 103 102 101 99 98 99 100 100 101 102 102 102 102 102 103 102 101 100 100 100 100 101 101 103 103 101 99 97 96 94 95 96 97 99 99 94 90 89 92 96 100 101 100 100 97
102 98 90 85 85 87 90 95 99 100 99 98 96 95 94 95 100 102 101 101 101 101 100 100 100 101 101 102 101 100 101 102 102 101 100 100 100 100 100 101 101 102 103 103 101 100 98 97 98 99 98 99 97 92 89 93 98 102 103 101 102 102 98
98 92 85 82 81 81 82 87 93 96 96 95 94 92 90 92 95 96 97 98 99 99 100 100 101 102 102 101 100 100 101 100 100 100 100 100 100 100 100 100 100 101 102 102 101 101 99 98 99 99 98 99 100 97 96 100 102 102 101 101 101 101 98
90 85 81 80 79 80 83 84 87 90 93 93 92 91 91 91 89 88 92 96 96 97 100 100 100 101 101 100 100 100 100 100 100 100 100 100 100 100 100 101 100 100 100 101 101 101 99 97 97 96 96 98 101 102 101 102 103 101 101 101 100 99 98
86 84 84 82 81 82 85 86 88 91 93 93 92 91 93 92 88 90 97 98 95 96 100 101 101 101 100 100 100 99 98 97 98 99 100 101 100 100 100 100 100 100 100 100 100 100 99 98 99 99 98 98 98 98 99 101 101 101 101 102 101 100 100
91 89 88 87 85 84 85 88 92 93 94 95 94 93 94 94 92 96 102 101 97 97 100 101 102 101 100 100 101 100 99 98 97 97 99 99 101 101 101 101 100 100 100 100 100 100 99 99 100 101 101 100 95 91 94 100 101 101 101 102 102 101 101
93 95 94 92 92 92 92 93 94 94 94 96 97 96 97 96 96 99 102 101 100 101 102 102 102 101 100 100 100 99 99 98 97 97 97 98 99 101 102 102 102 101 101 100 100 100 100 100 100 100 101 101 98 92 92 96 100 102 101 101 101 100 99
91 95 98 99 98 97 97 96 95 95 97 98 99 99 99 99 99 99 100 102 102 102 102 102 101 100 100 100 99 99 100 100 100 101 100 99 99 98 99 101 102 102 102 102 100 100 100 100 100 100 100 100 100 97 93 92 95 99 101 101 100 98 97
96 97 99 100 99 97 97 97 97 97 97 97 99 100 102 103 102 101 100 102 102 102 102 102 100 100 101 100 100 100 100 101 101 102 102 102 101 98 97 98 99 101 102 103 103 102 102 101 100 100 100 100 100 100 99 96 95 97 99 101 100 98 98
94 95 95 95 94 94 94 94 95 95 95 96 98 100 102 103 103 102 101 101 102 103 103 101 100 101 100 99 99 99 100 100 100 100 101 103 103 101 99 97 96 97 98 99 101 103 103 103 102 101 101 101 100 100 100 100 99 98 100 101 102 100 100

ECMWFFLT1_700_rhum_057.txt.gz
RH
37 40 44 49 54 58 61 64 66 66 65 64 63 65 72 80 83 82 86 90 83 68 60 60 59 59 60 59 54 50 48 47 44 41 38 37 36 35 34 34 30 23 17 13 9 8 7 6 8 19 33 40 44 46 47 47 46 45 46 49 51 58 68
36 38 40 44 49 55 59 61 63 64 64 63 63 65 70 79 85 84 83 88 88 75 61 59 61 60 60 61 59 55 51 48 46 43 39 37 37 36 35 36 35 31 26 22 17 12 8 5 4 6 15 28 40 47 50 49 47 46 44 45 46 49 55
36 37 39 41 46 51 56 60 61 61 62 64 65 65 69 78 86 86 84 85 89 83 67 57 58 61 61 60 58 56 52 49 46 44 41 39 38 36 36 37 36 34 31 27 24 19 13 9 6 3 4 11 24 40 51 53 51 50 49 47 46 46 48
37 37 37 39 43 48 53 57 59 61 62 65 67 66 68 78 87 87 86 85 87 86 76 61 54 56 58 59 57 56 54 51 47 45 42 40 40 38 38 39 39 39 36 32 28 23 19 15 11 7 4 3 9 23 42 55 58 58 58 54 50 49 47
38 38 38 39 42 46 50 53 57 61 63 65 69 68 69 79 88 88 86 86 85 85 82 70 55 47 46 49 53 55 55 53 52 50 48 45 45 44 44 44 44 43 41 37 31 26 23 21 18 14 8 5 3 7 25 50 65 69 69 66 59 54 50
39 39 39 41 43 45 48 50 54 59 63 66 69 70 72 80 86 86 84 85 85 84 85 79 64 50 40 36 37 41 44 44 43 43 42 42 41 42 42 42 42 41 38 34 29 25 23 22 20 19 15 11 7 3 8 31 61 79 85 82 74 65 57
39 39 40 43 45 47 48 49 53 57 61 66 69 70 75 81 84 83 83 84 84 83 83 83 75 62 49 38 31 29 28 29 29 28 27 26 25 24 23 22 21 21 21 19 17 16 16 17 18 19 19 16 14 9 3 9 33 62 86 96 92 82 75
41 41 42 45 48 49 49 50 54 57 60 65 68 71 77 82 82 81 81 84 86 83 80 83 84 76 65 53 43 35 28 25 24 25 25 24 22 19 16 13 11 9 8 7 7 7 8 10 12 13 15 18 20 17 10 4 8 26 57 88 100 96 91
49 49 49 50 52 53 53 54 57 57 58 64 69 72 77 81 81 81 81 83 87 87 82 81 86 87 81 71 61 52 43 36 30 27 26 26 26 25 23 21 17 14 11 8 6 5 5 5 6 6 8 14 19 18 14 11 6 5 19 49 80 97 99
59 58 57 57 58 58 58 60 63 61 59 63 69 74 79 82 82 81 81 82 85 88 87 83 82 87 89 85 79 71 63 56 47 39 33 30 27 25 26 26 25 23 20 16 13 10 7 5 5 5 6 9 12 14 14 12 10 6 5 13 37 67 89
65 65 65 64 65 65 65 67 69 66 63 65 70 74 79 82 84 84 85 85 85 87 90 89 85 83 85 88 89 87 81 74 67 58 51 45 38 32 28 26 26 26 26 25 23 20 16 12 8 6 7 7 8 10 11 10 9 7 6 5 9 25 51
68 68 68 68 69 70 71 73 74 70 67 70 73 74 79 82 83 82 84 88 89 88 91 93 92 88 84 84 88 91 91 89 85 78 70 62 54 47 39 33 29 27 26 27 27 26 25 22 18 14 11 9 8 7 8 9 9 8 7 8 7 7 16
71 71 71 69 70 73 75 78 79 73 71 75 78 78 82 85 81 77 77 82 88 92 93 93 94 93 89 86 85 87 91 92 92 91 86 79 71 62 54 47 39 34 30 27 27 28 27 27 27 25 22 19 16 12 10 8 7 7 7 8 12 12 8
74 75 74 71 70 74 79 82 82 76 75 80 83 84 88 89 85 79 75 76 82 91 96 98 97 95 93 90 86 84 88 90 90 91 91 90 86 80 74 67 59 50 42 34 29 28 28 28 28 28 29 28 27 25 23 20 16 15 20 28 36 40 33
76 77 76 74 71 74 81 87 85 79 79 85 89 92 96 94 89 83 78 75 77 84 93 99 101 98 96 94 88 83 84 87 89 90 89 87 86 86 86 84 82 77 67 54 42 33 30 31 29 28 29 29 32 35 34 34 35 36 46 59 63 58 51
78 77 77 76 72 74 83 90 87 81 84 90 94 98 101 98 91 85 80 76 76 81 86 91 96 98 98 96 92 87 84 85 87 89 89 87 85 87 89 90 93 94 90 80 66 51 41 37 35 33 30 29 32 35 36 41 45 50 67 85 87 76 71
79 79 79 78 75 75 84 93 90 85 88 95 98 102 104 99 91 85 81 79 80 83 84 84 87 92 94 96 97 98 95 90 86 86 88 89 90 91 91 93 97 99 96 91 83 71 57 46 42 40 37 35 35 35 38 44 49 62 84 99 100 96 94
81 82 81 81 78 76 84 94 93 87 92 100 102 103 103 98 89 85 84 84 86 88 88 87 87 89 90 91 93 99 104 101 94 89 85 86 92 94 92 95 100 99 96 93 89 83 73 59 49 46 44 42 41 41 43 47 55 78 99 102 100 100 100
83 84 83 82 81 79 85 95 96 92 96 102 103 104 103 95 89 88 88 87 88 92 94 95 95 93 92 90 88 92 99 103 102 96 88 85 90 91 92 98 101 96 96 99 96 91 86 75 61 52 48 47 47 49 51 52 61 84 101 100 98 101 100
84 85 85 83 83 85 89 96 98 98 101 103 102 103 102 95 90 92 91 87 87 91 96 100 101 99 97 97 94 92 95 99 101 101 97 93 88 85 91 101 102 94 94 98 99 97 95 90 76 61 52 50 51 54 57 58 66 83 96 98 99 100 100
83 87 89 86 84 89 94 97 99 101 102 103 102 102 100 95 92 94 92 85 82 87 93 98 101 100 99 101 101 98 98 99 100 101 100 96 87 82 90 101 101 97 95 94 95 96 97 95 87 71 58 53 55 56 57 61 73 85 92 97 101 100 100
82 88 92 90 87 90 95 98 100 101 102 103 102 101 100 96 94 95 92 83 79 85 91 94 98 101 100 101 102 103 102 102 102 102 101 98 92 86 89 97 100 100 99 95 92 94 95 95 92 82 67 58 58 58 57 64 79 88 89 95 102 100 99
79 88 94 94 92 93 95 97 99 101 103 103 103 103 101 97 94 93 90 82 79 84 91 94 97 101 103 103 102 103 103 102 102 102 100 100 100 96 95 98 101 99 99 97 93 92 93 93 93 88 77 65 62 62 63 73 87 92 90 95 102 101 99
74 86 94 95 95 97 98 98 99 102 103 102 101 103 102 99 95 92 89 84 80 82 89 96 100 103 104 104 102 102 103 102 101 101 99 95 95 96 98 100 99 94 95 98 95 91 93 94 94 92 86 76 69 69 76 87 97 98 94 95 98 101 102
72 86 94 94 95 99 101 100 101 103 103 101 101 103 104 101 97 94 92 90 85 82 86 93 99 102 104 105 102 100 102 103 101 101 101 96 90 87 89 94 95 91 91 95 94 92 97 101 98 95 94 89 82 81 90 99 102 101 100 98 97 98 99
71 83 91 93 96 100 102 101 101 102 101 101 100 102 103 100 97 96 95 94 90 85 83 87 92 97 101 103 102 99 99 102 103 101 101 101 98 91 86 90 96 95 92 93 93 92 97 104 102 98 100 100 95 91 95 100 102 102 102 101 100 98 96
66 78 88 94 98 102 102 101 100 101 101 100 100 102 102 98 95 95 95 93 90 87 86 87 89 92 95 99 100 98 96 97 100 102 101 102 104 101 96 96 100 100 97 97 97 92 93 102 105 100 99 103 102 97 96 99 101 102 102 101 101 101 99
63 72 82 92 100 102 102 101 100 100 100 98 97 97 96 93 94 95 93 90 88 88 89 89 89 88 89 92 97 98 95 92 93 98 102 103 103 104 101 100 101 101 99 99 99 93 92 99 105 102 99 100 102 101 101 101 101 102 103 103 103 102 101
60 64 72 89 100 102 101 101 100 100 99 97 96 94 91 91 95 95 91 88 89 90 91 90 89 87 86 89 95 98 96 90 88 93 100 103 104 104 103 101 101 101 98 97 98 96 95 98 101 102 102 101 100 101 102 101 101 101 102 103 102 99 97
53 59 69 89 102 103 101 101 100 100 99 99 99 98 97 98 97 92 89 90 92 93 93 90 88 86 86 90 95 99 98 94 90 92 99 103 103 103 103 102 102 102 99 97 96 95 97 100 100 101 102 101 100 100 101 101 101 101 101 101 101 98 97
46 60 70 82 94 101 103 103 103 103 102 101 101 100 101 101 96 90 89 92 94 94 93 90 87 86 88 92 96 98 99 98 96 97 100 101 102 102 102 102 103 102 101 100 98 96 96 98 101 102 102 100 98 98 100 102 101 99 98 99 99 98 99
41 58 66 70 80 90 95 99 100 100 100 100 98 97 97 96 92 90 91 92 92 93 92 90 89 90 93 97 100 100 100 101 101 101 100 100 101 102 101 101 102 101 100 100 101 100 96 95 98 101 102 101 99 96 96 98 100 100 99 98 97 97 99
36 51 60 67 73 78 82 87 90 91 93 94 93 93 92 89 87 89 91 92 92 93 93 92 92 94 98 101 101 100 101 101 101 101 100 100 101 101 101 101 101 101 101 101 101 101 99 96 95 96 97 99 101 100 98 97 97 97 99 100 100 100 100
32 44 56 66 72 75 78 81 83 85 88 90 92 92 91 89 88 90 92 94 94 93 93 94 94 98 102 103 101 100 101 101 101 101 100 100 100 100 100 100 100 100 101 100 100 101 100 99 98 96 95 95 97 99 100 100 99 98 98 99 98 98 98
28 38 47 55 63 71 76 77 77 79 82 86 89 91 91 91 91 91 92 93 94 93 94 96 99 102 103 102 100 101 101 101 101 100 100 100 100 100 100 100 100 100 100 100 101 101 100 99 98 98 97 95 95 95 96 97 99 101 101 100 99 97 97
21 29 35 40 48 61 71 76 77 78 80 83 87 89 90 92 92 91 91 91 91 93 95 98 102 105 104 102 101 101 101 101 101 100 100 100 100 100 100 100 100 100 100 101 102 102 101 100 99 98 97 96 95 95 95 95 95 97 99 101 102 101 100